FW5161 Weather Reports


Display with metric or nautical units.
time (UTC)temp
F
wind
direction
speed
MPH
gust
MPH
rain 1hr
in
rain 24hr
in
rain mn
in
humidity
%
barometer
mb
20260506202415 59 224 7.0 16.0 0.00 0.00 0.00 73 1018.5
20260506201911 58 234 7.0 16.0 0.00 0.00 0.00 72 1018.3
20260506201411 60 188 4.0 12.0 0.00 0.00 0.00 71 1018.3
20260506201139 60 299 5.0 12.0 0.00 0.00 0.00 73 1018.2
20260506200410 58 275 6.0 14.0 0.00 0.00 0.00 74 1018.3
20260506195907 59 269 4.0 14.0 0.00 0.00 0.00 73 1018.3
20260506195407 59 295 5.0 15.0 0.00 0.00 0.00 73 1018.3
20260506194907 58 143 5.0 15.0 0.00 0.00 0.00 74 1018.2
20260506194407 59 295 4.0 13.0 0.00 0.00 0.00 73 1018.3
20260506193908 59 323 5.0 15.0 0.00 0.00 0.00 73 1018.2
20260506193632 58 295 5.0 15.0 0.00 0.00 0.00 74 1018.4
20260506192908 58 193 4.0 12.0 0.00 0.00 0.00 73 1018.3
20260506192633 59 318 3.0 11.0 0.00 0.00 0.00 73 1018.3
20260506191905 58 343 4.0 11.0 0.00 0.00 0.00 74 1018.3
20260506191405 59 314 4.0 11.0 0.00 0.00 0.00 72 1018.1
20260506190909 59 312 3.0 9.0 0.00 0.00 0.00 72 1018.1
20260506190406 59 9 4.0 15.0 0.00 0.00 0.00 78 1018.0
20260506185907 57 264 6.0 15.0 0.00 0.00 0.00 77 1018.1
20260506185406 58 307 4.0 15.0 0.00 0.00 0.00 75 1018.0
20260506184859 58 318 3.0 9.0 0.00 0.00 0.00 78 1018.0
20260506183846 57 303 3.0 9.0 0.00 0.00 0.00 75 1018.0
20260506183344 57 305 2.0 9.0 0.00 0.00 0.00 76 1018.0
20260506182845 57 285 1.0 5.0 0.00 0.00 0.00 76 1018.0
20260506182346 57 339 2.0 8.0 0.00 0.00 0.00 78 1018.1
20260506181844 56 295 3.0 8.0 0.00 0.00 0.00 78 1018.2
20260506181610 56 343 3.0 7.0 0.00 0.00 0.00 79 1018.1
20260506180845 55 319 3.0 8.0 0.00 0.00 0.00 79 1018.0
20260506180606 56 271 3.0 8.0 0.00 0.00 0.00 79 1018.0
20260506180110 55 330 3.0 7.0 0.00 0.00 0.00 79 1017.9
20260506175609 56 320 2.0 6.0 0.00 0.00 0.00 80 1017.9
20260506174845 55 274 3.0 8.0 0.00 0.00 0.00 80 1018.0
20260506174345 55 345 3.0 8.0 0.00 0.00 0.00 79 1018.0
20260506173845 55 326 4.0 10.0 0.00 0.00 0.00 81 1018.0
20260506173343 55 316 4.0 10.0 0.00 0.00 0.00 80 1018.0
20260506172843 54 295 4.0 9.0 0.00 0.00 0.00 80 1017.9
20260506172341 55 280 4.0 10.0 0.00 0.00 0.00 80 1017.9
20260506172101 55 305 3.0 10.0 0.00 0.00 0.00 79 1017.8
20260506171333 55 128 3.0 9.0 0.00 0.00 0.00 80 1017.7
20260506170834 55 85 3.0 8.0 0.00 0.00 0.00 78 1017.7
20260506170333 55 305 4.0 12.0 0.00 0.00 0.00 79 1017.6
20260506170103 55 193 4.0 12.0 0.00 0.00 0.00 80 1017.5
20260506165331 55 328 3.0 8.0 0.00 0.00 0.00 80 1017.4
20260506164331 55 295 3.0 7.0 0.00 0.00 0.00 80 1017.3
20260506164057 56 295 3.0 5.0 0.00 0.00 0.00 81 1017.5
20260506163331 54 345 4.0 9.0 0.00 0.00 0.00 81 1017.5
20260506162831 54 305 3.0 9.0 0.00 0.00 0.00 81 1017.5
20260506162328 54 231 3.0 10.0 0.00 0.00 0.00 81 1017.4
20260506161828 54 299 3.0 10.0 0.00 0.00 0.00 81 1017.5
20260506161330 54 214 4.0 10.0 0.00 0.00 0.00 80 1017.4
20260506160829 54 257 3.0 10.0 0.00 0.00 0.00 81 1017.4
20260506160330 54 295 3.0 11.0 0.00 0.00 0.00 81 1017.4
20260506155828 54 242 3.0 11.0 0.00 0.00 0.00 80 1017.4
20260506155329 54 359 3.0 6.0 0.00 0.00 0.00 81 1017.5
20260506154829 54 202 4.0 13.0 0.00 0.00 0.00 81 1017.6
20260506154329 53 215 5.0 16.0 0.00 0.00 0.00 81 1017.6
20260506153829 53 280 5.0 16.0 0.00 0.00 0.00 82 1017.6
20260506153329 53 314 5.0 11.0 0.00 0.00 0.00 82 1017.5
20260506152828 53 351 5.0 11.0 0.00 0.00 0.00 82 1017.5
20260506152329 52 186 5.0 13.0 0.00 0.00 0.00 83 1017.5
20260506152100 52 72 6.0 21.0 0.00 0.00 0.00 83 1017.5
20260506151559 52 147 7.0 24.0 0.00 0.00 0.00 83 1017.5
20260506151100 52 133 8.0 24.0 0.00 0.00 0.00 83 1017.3
20260506150329 51 223 8.0 18.0 0.00 0.00 0.00 84 1017.2
20260506150100 51 143 7.0 25.0 0.00 0.00 0.00 84 1017.2
20260506144830 51 135 8.0 17.0 0.00 0.00 0.00 84 1016.9
20260506144329 51 177 7.0 17.0 0.00 0.00 0.00 85 1016.7
20260506143829 51 207 8.0 17.0 0.00 0.00 0.00 85 1016.7
20260506143329 51 143 7.0 21.0 0.00 0.00 0.00 85 1016.9
20260506142831 51 164 8.0 21.0 0.00 0.00 0.00 85 1016.7
20260506142325 51 176 10.0 25.0 0.00 0.00 0.00 85 1016.3
20260506141819 51 121 10.0 25.0 0.00 0.00 0.00 85 1016.5
20260506141312 51 104 11.0 25.0 0.00 0.00 0.00 84 1016.3
20260506140806 51 129 11.0 29.0 0.00 0.00 0.00 84 1016.1
20260506140302 51 194 12.0 29.0 0.00 0.00 0.00 84 1016.2
20260506135801 51 181 13.0 33.0 0.00 0.00 0.00 84 1016.2
20260506135301 51 176 12.0 33.0 0.00 0.00 0.00 84 1016.1
20260506134801 51 162 12.0 24.0 0.00 0.00 0.00 84 1016.2
20260506134301 51 220 14.0 26.0 0.00 0.00 0.00 84 1016.2
20260506133801 51 174 15.0 32.0 0.00 0.00 0.00 84 1016.2
20260506133301 51 95 17.0 32.0 0.00 0.00 0.00 84 1015.8
20260506132802 51 130 16.0 31.0 0.00 0.00 0.00 83 1016.0
20260506132301 51 149 16.0 34.0 0.00 0.00 0.00 83 1015.7
20260506131801 51 145 16.0 34.0 0.00 0.00 0.00 82 1015.6
20260506131302 51 119 17.0 32.0 0.00 0.00 0.00 84 1015.7
20260506130801 51 156 17.0 30.0 0.00 0.00 0.00 85 1015.6
20260506130534 52 94 17.0 36.0 0.00 0.00 0.00 84 1015.5
20260506125802 52 135 17.0 36.0 0.00 0.00 0.00 83 1015.2
20260506125301 52 102 17.0 31.0 0.00 0.00 0.00 83 1015.3
20260506124801 52 164 17.0 29.0 0.00 0.00 0.00 81 1015.3
20260506124538 52 176 17.0 32.0 0.00 0.00 0.00 80 1015.7
20260506123801 52 144 17.0 32.0 0.00 0.00 0.00 80 1015.7
20260506123256 52 172 17.0 31.0 0.00 0.00 0.00 81 1015.7
20260506122748 52 169 17.0 31.0 0.00 0.00 0.00 81 1015.4
20260506122244 52 98 17.0 32.0 0.00 0.00 0.00 81 1015.4
20260506121737 51 157 15.0 30.0 0.00 0.00 0.00 82 1015.5
20260506121233 51 161 15.0 30.0 0.00 0.00 0.00 82 1015.5
20260506120735 52 123 14.0 30.0 0.00 0.00 0.00 81 1015.5
20260506120232 52 142 13.0 28.0 0.00 0.00 0.00 80 1015.6
20260506115731 52 97 13.0 26.0 0.00 0.00 0.00 80 1015.5
20260506115230 52 102 12.0 30.0 0.00 0.00 0.00 79 1015.5
20260506114730 53 129 13.0 30.0 0.00 0.00 0.00 79 1015.4
20260506114230 53 144 15.0 30.0 0.00 0.00 0.00 79 1015.2
20260506113730 53 176 16.0 30.0 0.00 0.00 0.00 79 1015.1
20260506113230 53 155 15.0 30.0 0.00 0.00 0.00 78 1014.9
20260506112729 53 154 16.0 29.0 0.00 0.00 0.00 78 1014.8
20260506112230 53 149 16.0 36.0 0.00 0.00 0.00 78 1014.8
20260506111729 53 163 16.0 36.0 0.00 0.00 0.00 78 1014.8
20260506111502 53 76 16.0 30.0 0.00 0.00 0.00 79 1014.9
20260506110730 53 182 15.0 31.0 0.00 0.00 0.00 79 1014.9
20260506105730 53 210 14.0 28.0 0.00 0.00 0.00 79 1014.8
20260506105229 53 133 15.0 29.0 0.00 0.00 0.00 79 1014.9
20260506104724 53 132 17.0 33.0 0.00 0.00 0.00 79 1014.7
20260506104219 53 132 18.0 38.0 0.00 0.00 0.00 80 1014.7
20260506103712 53 127 19.0 38.0 0.00 0.00 0.00 80 1014.5
20260506103212 53 154 18.0 33.0 0.00 0.00 0.00 80 1014.5
20260506102944 53 153 19.0 32.0 0.00 0.00 0.00 80 1014.5
20260506102212 53 120 19.0 34.0 0.00 0.00 0.00 80 1014.4
20260506101712 53 158 20.0 41.0 0.00 0.00 0.00 80 1014.4
20260506101211 53 193 21.0 41.0 0.00 0.00 0.00 81 1014.4
20260506100712 53 150 20.0 40.0 0.00 0.00 0.00 81 1014.5
20260506100212 54 93 19.0 38.0 0.00 0.00 0.00 80 1014.2
20260506095712 54 150 18.0 35.0 0.00 0.00 0.00 80 1014.2
20260506095212 54 128 17.0 35.0 0.00 0.00 0.00 80 1014.1
20260506094712 55 191 15.0 32.0 0.00 0.00 0.00 79 1013.9
20260506094210 55 171 14.0 31.0 0.00 0.00 0.00 79 1014.0
20260506093710 55 84 13.0 29.0 0.00 0.00 0.00 79 1014.1
20260506093440 55 164 14.0 28.0 0.00 0.00 0.00 78 1014.0
20260506092707 55 247 15.0 32.0 0.00 0.00 0.00 77 1014.1
20260506092206 56 168 17.0 32.0 0.00 0.00 0.00 77 1014.0
20260506091706 56 139 20.0 36.0 0.00 0.00 0.00 75 1014.2
20260506091205 56 154 19.0 36.0 0.00 0.00 0.00 76 1014.1
20260506090708 56 124 19.0 31.0 0.00 0.00 0.00 75 1014.0
20260506090209 56 164 20.0 36.0 0.00 0.00 0.00 75 1014.0
20260506085709 56 139 20.0 36.0 0.00 0.00 0.00 75 1013.9
20260506085210 56 95 20.0 36.0 0.00 0.00 0.00 74 1013.9
20260506084705 56 136 19.0 34.0 0.00 0.00 0.00 76 1013.8
20260506084204 57 182 20.0 34.0 0.00 0.00 0.00 77 1013.7
20260506083203 57 155 19.0 34.0 0.00 0.00 0.00 77 1013.6
20260506082703 57 115 20.0 34.0 0.00 0.00 0.00 76 1013.9
20260506082203 57 128 20.0 37.0 0.00 0.00 0.00 78 1013.7
20260506081702 57 139 19.0 37.0 0.00 0.00 0.00 78 1013.8
20260506081205 57 155 20.0 35.0 0.00 0.00 0.00 79 1013.7
20260506080932 56 177 21.0 36.0 0.00 0.00 0.00 79 1013.9
20260506080431 56 148 20.0 36.0 0.00 0.00 0.00 78 1014.0
20260506073202 57 171 22.0 38.0 0.00 0.00 0.00 79 1013.1
20260506072700 57 99 20.0 34.0 0.00 0.00 0.00 79 1013.2
20260506072431 57 173 21.0 34.0 0.00 0.00 0.00 78 1013.1
20260506071658 57 144 22.0 44.0 0.00 0.00 0.00 78 1013.2
20260506071158 57 143 21.0 44.0 0.00 0.00 0.00 78 1013.1
20260506070657 57 151 21.0 37.0 0.00 0.00 0.00 78 1013.1
20260506070158 57 163 21.0 38.0 0.00 0.00 0.00 79 1013.2
20260506062151 58 157 19.0 37.0 0.00 0.00 0.00 78 1013.0
20260506061652 58 148 20.0 36.0 0.00 0.00 0.00 78 1013.1
20260506061151 58 130 20.0 34.0 0.00 0.00 0.00 78 1013.0
20260506060649 58 166 20.0 34.0 0.00 0.00 0.00 79 1013.3
20260506060149 58 133 19.0 34.0 0.00 0.00 0.00 79 1013.0
20260506051133 59 132 18.0 32.0 0.00 0.00 0.00 78 1013.1
20260506050630 59 145 16.0 30.0 0.00 0.00 0.00 77 1012.9
20260506050128 59 180 18.0 36.0 0.00 0.00 0.00 77 1013.1
20260506045129 59 162 18.0 37.0 0.00 0.00 0.00 77 1012.8
20260506044629 60 133 19.0 36.0 0.00 0.00 0.00 77 1012.9
20260506044134 60 121 19.0 36.0 0.00 0.00 0.00 76 1012.8
20260506043858 60 146 19.0 33.0 0.00 0.00 0.00 76 1012.5
20260506043354 60 156 19.0 33.0 0.00 0.00 0.00 75 1012.4
20260506042629 60 149 19.0 33.0 0.00 0.00 0.00 75 1012.4
20260506042129 60 146 20.0 34.0 0.00 0.00 0.00 75 1012.3
20260506041130 60 135 19.0 32.0 0.00 0.00 0.00 74 1012.2
20260506040855 61 114 17.0 31.0 0.00 0.00 0.00 74 1012.2
20260506040129 61 157 17.0 31.0 0.00 0.00 0.00 73 1012.3
20260506035858 61 144 18.0 33.0 0.00 0.00 0.00 73 1012.3
20260506035131 61 149 19.0 33.0 0.00 0.00 0.00 72 1012.2
20260506034629 61 108 19.0 32.0 0.00 0.00 0.00 72 1012.3
20260506034129 61 153 18.0 32.0 0.00 0.00 0.00 72 1012.2
20260506033628 61 99 17.0 34.0 0.00 0.00 0.00 72 1012.2
20260506033129 61 143 17.0 34.0 0.00 0.00 0.00 71 1012.2
20260506032901 61 162 16.0 34.0 0.00 0.00 0.00 71 1012.1
20260506032359 61 131 17.0 34.0 0.00 0.00 0.00 71 1011.9
20260506031629 62 122 17.0 32.0 0.00 0.00 0.00 70 1012.0
20260506031130 62 102 16.0 30.0 0.00 0.00 0.00 69 1012.0
20260506030628 63 115 16.0 30.0 0.00 0.00 0.00 69 1012.1
20260506030130 63 153 14.0 26.0 0.00 0.00 0.00 68 1011.9
20260506025630 63 117 15.0 24.0 0.00 0.00 0.00 69 1011.9
20260506025130 63 179 16.0 24.0 0.00 0.00 0.00 68 1011.8
20260506024857 63 197 14.0 28.0 0.00 0.00 0.00 68 1011.8
20260506024129 63 194 13.0 28.0 0.00 0.00 0.00 68 1011.8
20260506023629 63 111 11.0 24.0 0.00 0.00 0.00 68 1012.0
20260506023359 63 150 12.0 25.0 0.00 0.00 0.00 69 1012.0
20260506022630 62 149 15.0 26.0 0.00 0.00 0.00 70 1011.9
20260506022358 62 135 15.0 26.0 0.00 0.00 0.00 70 1011.9
20260506021622 62 149 14.0 26.0 0.00 0.00 0.00 70 1012.0
20260506021342 62 161 13.0 26.0 0.00 0.00 0.00 70 1012.0
20260506020609 62 247 11.0 25.0 0.00 0.00 0.00 69 1012.1
20260506020103 63 128 12.0 27.0 0.00 0.00 0.00 70 1012.1
20260506015556 62 137 14.0 27.0 0.00 0.00 0.00 71 1012.2
20260506015050 62 141 15.0 29.0 0.00 0.00 0.00 72 1012.0
20260506014544 61 105 15.0 29.0 0.00 0.00 0.00 72 1012.4
20260506014038 61 113 14.0 25.0 0.00 0.00 0.00 71 1012.4
20260506013539 61 113 15.0 27.0 0.00 0.00 0.00 71 1012.5
20260506013308 61 86 15.0 27.0 0.00 0.00 0.00 72 1012.3
20260506012542 61 118 17.0 29.0 0.00 0.00 0.00 71 1012.4
20260506012307 61 122 17.0 29.0 0.00 0.00 0.00 72 1012.3
20260506011538 61 166 17.0 32.0 0.00 0.00 0.00 71 1012.5
20260506011039 61 144 15.0 32.0 0.00 0.00 0.00 71 1012.5
20260506010538 62 147 13.0 29.0 0.00 0.00 0.00 70 1012.5
20260506010037 62 123 13.0 28.0 0.00 0.00 0.00 70 1012.4
20260506005538 62 114 13.0 28.0 0.00 0.00 0.00 70 1012.4
20260506005038 62 103 13.0 24.0 0.00 0.00 0.00 70 1012.5
20260506004538 62 221 14.0 24.0 0.00 0.00 0.00 70 1012.5
20260506003802 62 135 14.0 28.0 0.00 0.00 0.00 70 1012.6
20260506002809 63 132 11.0 27.0 0.00 0.00 0.00 69 1012.8
20260506002043 62 140 12.0 22.0 0.00 0.00 0.00 69 1012.8
20260506001539 62 138 12.0 23.0 0.00 0.00 0.00 69 1013.0
20260506001039 62 72 11.0 23.0 0.00 0.00 0.00 69 1013.2
20260506000537 63 110 9.0 22.0 0.00 0.00 0.00 68 1013.1
20260506000039 63 85 8.0 19.0 0.00 0.00 0.00 68 1013.1
20260505235537 64 179 6.0 19.0 0.00 0.00 0.00 65 1013.3
20260505235038 67 164 5.0 14.0 0.00 0.00 0.00 64 1013.3
20260505234537 67 327 4.0 9.0 0.00 0.00 0.00 66 1013.3
20260505234037 65 185 4.0 8.0 0.00 0.00 0.00 64 1013.4
20260505233038 67 311 5.0 9.0 0.00 0.00 0.00 65 1013.5
20260505232037 68 330 4.0 9.0 0.00 0.00 0.00 63 1013.6
20260505231538 67 317 4.0 8.0 0.00 0.00 0.00 64 1013.6
20260505231038 68 316 4.0 8.0 0.00 0.00 0.00 62 1013.6
20260505230538 68 333 4.0 11.0 0.00 0.00 0.00 65 1013.6
20260505230254 66 353 4.0 11.0 0.00 0.00 0.00 62 1013.7
20260505225531 67 72 4.0 13.0 0.00 0.00 0.00 64 1013.7
20260505224531 67 314 3.0 8.0 0.00 0.00 0.00 65 1013.8
20260505224031 66 271 3.0 10.0 0.00 0.00 0.00 64 1013.8
20260505223533 67 312 3.0 10.0 0.00 0.00 0.00 65 1013.8
20260505223031 65 319 4.0 9.0 0.00 0.00 0.00 68 1013.9
20260505222530 65 281 4.0 9.0 0.00 0.00 0.00 66 1014.2
20260505222030 67 359 4.0 10.0 0.00 0.00 0.00 66 1013.9
20260505221529 67 334 4.0 10.0 0.00 0.00 0.00 67 1014.0
20260505221029 66 315 5.0 9.0 0.00 0.00 0.00 68 1014.0
20260505220529 67 305 5.0 9.0 0.00 0.00 0.00 65 1014.1
20260505220031 66 326 3.0 7.0 0.00 0.00 0.00 67 1014.2
20260505215531 66 315 3.0 8.0 0.00 0.00 0.00 68 1014.1
20260505215029 66 312 4.0 8.0 0.00 0.00 0.00 69 1014.1
20260505214803 65 309 5.0 8.0 0.00 0.00 0.00 67 1014.1
20260505214030 65 329 4.0 7.0 0.00 0.00 0.00 69 1014.1
20260505213805 65 314 3.0 7.0 0.00 0.00 0.00 69 1014.2
20260505213023 66 330 3.0 8.0 0.00 0.00 0.00 69 1014.2
20260505212746 65 345 3.0 8.0 0.00 0.00 0.00 68 1014.3
20260505212010 66 323 3.0 8.0 0.00 0.00 0.00 68 1014.3
20260505211509 66 350 3.0 8.0 0.00 0.00 0.00 68 1014.3
20260505211009 66 345 3.0 5.0 0.00 0.00 0.00 70 1014.4
20260505210750 65 341 3.0 6.0 0.00 0.00 0.00 70 1014.4
20260505210011 65 53 2.0 6.0 0.00 0.00 0.00 70 1014.4
20260505205510 65 295 3.0 8.0 0.00 0.00 0.00 69 1014.4
20260505205009 63 324 3.0 8.0 0.00 0.00 0.00 73 1014.5
20260505204508 65 349 3.0 6.0 0.00 0.00 0.00 70 1014.6
20260505204005 64 326 3.0 7.0 0.00 0.00 0.00 73 1014.5
20260505203505 63 304 3.0 7.0 0.00 0.00 0.00 70 1014.5
20260505203006 65 309 4.0 7.0 0.00 0.00 0.00 69 1014.6